[[{"header":{"parameterUnit":"m.s-1","parameterCategory":1,"la1":30.2991,"la2":30.254,"lo1":-89.0895,"lo2":-89.0444,"dy":0.0017,"dx":0.0017,"nx":28,"ny":28,"refTime":"2024-02-14T09:00:00:Z","depth":0,"parameterNumber":2,"parameterNumberName":"U-component_of_WINDS"},"data":[0,0,0,0,0,0,0,0,0,0,0,0,0,0,0,0,0,0,0,0,0,0,0,0,0,0,0,0,0,0,0,0,0,0,0,0,0,0,0,0,0,0,0,0,0,0,0,0,0,0,0,0,0,0,0,0,0,0,-0.5116,-0.5115,0,-0.5065,-0.5064,-0.5064,-0.5019,-0.5019,-0.5018,-0.5018,-0.4965,-0.4964,-0.4963,0,0,0,0,0,0,0,0,0,0,0,0,0,-0.5174,-0.5174,-0.5116,-0.5115,-0.5115,-0.5065,-0.5064,-0.5064,-0.502,-0.5019,-0.5018,-0.5018,-0.4965,-0.4964,-0.4963,0,0,0,0,0,0,0,0,0,0,0,0,0,-0.5139,-0.5173,-0.5116,-0.5087,-0.5084,-0.5065,-0.5064,-0.5063,-0.502,-0.5019,-0.5018,-0.5018,-0.4965,-0.4964,-0.4962,-0.4968,0,0,-0.4958,-0.4957,0,0,0,0,0,0,0,0,-0.5141,-0.5137,-0.5092,-0.5089,-0.5085,-0.5048,-0.5065,-0.5031,-0.502,-0.5044,-0.5018,-0.5017,-0.4993,-0.4989,-0.4981,-0.4966,-0.4964,-0.4958,-0.4957,-0.4956,-0.4956,0,0,0,0,0,0,0,-0.5143,-0.5139,-0.5096,-0.5091,-0.5087,-0.5076,-0.507,-0.5059,-0.5023,-0.5042,-0.5038,-0.5033,-0.4991,-0.4983,-0.4979,-0.4963,-0.4958,-0.4957,-0.4956,-0.4955,-0.4951,-0.4951,0,0,0,0,0,0,-0.515,-0.5141,-0.5097,-0.5094,-0.5112,-0.5075,-0.5069,-0.506,-0.5023,-0.5017,-0.5034,-0.5031,-0.4985,-0.4981,-0.4977,-0.4982,-0.4956,-0.4955,-0.4954,-0.495,-0.4951,-0.4952,0,0,0,0,0,0,-0.5152,-0.5147,-0.5099,-0.5117,-0.511,-0.5075,-0.5066,-0.506,-0.5052,-0.5017,-0.501,-0.5032,-0.4985,-0.4979,-0.4971,-0.498,-0.4954,-0.4953,-0.4949,-0.495,-0.4951,-0.4992,0,0,0,0,0,0,-0.5154,-0.5148,-0.515,-0.5117,-0.5109,-0.5094,-0.5067,-0.5059,-0.5049,-0.5045,-0.5014,-0.5007,-0.4984,-0.4974,-0.497,-0.4977,-0.4952,-0.4948,-0.4949,-0.4951,-0.4989,-0.4994,-0.4998,0,0,0,0,0,-0.5156,-0.5163,-0.515,-0.5145,-0.5111,-0.5095,-0.509,-0.5063,-0.505,-0.5052,-0.503,-0.5008,-0.498,-0.4973,-0.4968,-0.4976,-0.4947,-0.4949,-0.4951,-0.4987,-0.4993,-0.4998,0,0,0,0,0,0,-0.5197,-0.5158,-0.5143,-0.514,-0.5121,-0.5087,-0.5088,-0.507,-0.5054,-0.5051,-0.5017,-0.501,-0.5006,-0.499,-0.4983,-0.498,-0.4961,-0.4961,-0.499,-0.4995,-0.4999,-0.5003,-0.4951,0,0,0,0,0,-0.5206,-0.5196,-0.5163,-0.5163,-0.5154,-0.5123,-0.5115,-0.5096,-0.5075,-0.5066,-0.5044,-0.5024,-0.501,-0.5002,-0.4987,-0.4987,-0.498,-0.499,-0.4994,-0.4998,-0.4999,-0.4998,-0.5002,-0.4957,-0.4957,-0.4957,0,0,-0.5223,-0.5201,-0.5197,-0.517,-0.5153,-0.5144,-0.5117,-0.5108,-0.5101,-0.5065,-0.5056,-0.5039,-0.5014,-0.501,-0.5007,-0.4997,-0.501,-0.5,-0.5003,-0.5002,-0.5,-0.5004,-0.5008,-0.4958,-0.4958,-0.4958,0,0,-0.525,-0.5233,-0.5231,-0.5215,-0.519,-0.517,-0.5169,-0.5139,-0.5126,-0.5117,-0.509,-0.5081,-0.5058,-0.5042,-0.5031,-0.5053,-0.5033,-0.505,-0.5072,-0.5071,-0.5075,-0.5078,-0.5086,-0.5089,-0.5051,-0.5051,-0.5051,0,-0.5275,-0.5261,-0.5232,-0.5226,-0.5215,-0.5183,-0.5181,-0.5167,-0.5138,-0.5131,-0.512,-0.5092,-0.5073,-0.5065,-0.507,-0.5062,-0.5061,-0.5053,-0.5077,-0.5079,-0.5082,-0.5089,-0.5092,-0.5053,-0.5053,-0.5053,-0.5052,0,-0.5293,-0.5283,-0.5284,-0.5258,-0.5248,-0.5244,-0.5215,-0.5207,-0.519,-0.517,-0.5161,-0.5138,-0.5119,-0.5115,-0.5097,-0.5105,-0.5099,-0.5083,-0.5063,-0.5088,-0.5095,-0.5097,-0.5056,-0.5055,-0.5055,-0.5054,0,0,-0.5343,-0.5302,-0.5303,-0.5292,-0.5262,-0.5254,-0.5249,-0.523,-0.5224,-0.5206,-0.5201,-0.5183,-0.5168,-0.5155,-0.5135,-0.5135,-0.5154,-0.5118,-0.5117,-0.5126,-0.5161,-0.5173,-0.5177,-0.5141,-0.5142,-0.5142,-0.5163,0,-0.5365,-0.5354,-0.5329,-0.5325,-0.5315,-0.5286,-0.5281,-0.5262,-0.5245,-0.5234,-0.5214,-0.5202,-0.5183,-0.5175,-0.5174,-0.5152,-0.5161,-0.5151,-0.5135,-0.5135,-0.5142,-0.518,-0.5193,-0.5214,-0.5166,-0.5166,-0.5166,0,-0.539,-0.5374,-0.5369,-0.5341,-0.5336,-0.5333,-0.5314,-0.5304,-0.5283,-0.527,-0.5257,-0.5235,-0.5228,-0.521,-0.5199,-0.5193,-0.5185,-0.5174,-0.5174,-0.5171,-0.5152,-0.5178,-0.522,-0.5223,-0.517,-0.5169,-0.5169,0,-0.5427,-0.5405,-0.5399,-0.539,-0.5357,-0.5355,-0.5341,-0.5319,-0.531,-0.5294,-0.5287,-0.527,-0.5261,-0.5248,-0.5223,-0.5212,-0.5215,-0.5195,-0.5204,-0.5204,-0.5205,-0.5205,-0.5246,-0.5201,-0.5201,-0.5201,-0.5201,0,-0.5454,-0.5453,-0.5415,-0.5412,-0.5409,-0.5381,-0.5379,-0.5362,-0.5343,-0.5336,-0.5309,-0.5303,-0.527,-0.526,-0.524,-0.5234,-0.523,-0.5219,-0.5214,-0.5221,-0.5223,-0.5215,-0.5213,-0.5202,-0.5202,-0.5201,-0.5201,0,-0.5495,-0.547,-0.5462,-0.5432,-0.5425,-0.5424,-0.5398,-0.5394,-0.5375,-0.5366,-0.5362,-0.5332,-0.5319,-0.5293,-0.5272,-0.5259,-0.5258,-0.5248,-0.5265,-0.5261,-0.5272,-0.5271,-0.5309,-0.5312,-0.5266,-0.5266,-0.5267,0,-0.5514,-0.5512,-0.5482,-0.5475,-0.5463,-0.5453,-0.5443,-0.5415,-0.5407,-0.5383,-0.5381,-0.5366,-0.5352,-0.5333,-0.5309,-0.5294,-0.5283,-0.5298,-0.5281,-0.5289,-0.5283,-0.5284,-0.5283,-0.5302,-0.5302,-0.5303,-0.5303,0,-0.555,-0.5538,-0.5526,-0.5509,-0.5499,-0.5485,-0.5469,-0.5465,-0.5433,-0.5425,-0.5412,-0.5401,-0.5381,-0.5366,-0.5347,-0.5333,-0.5313,-0.5309,-0.531,-0.5317,-0.5327,-0.5322,-0.5275,-0.5308,-0.5307,-0.5307,-0.5307,-0.5307,-0.558,-0.5577,-0.5556,-0.5543,-0.5528,-0.5515,-0.5509,-0.549,-0.5478,-0.546,-0.5444,-0.5432,-0.5411,-0.5384,-0.5371,-0.5361,-0.5351,-0.5353,-0.5353,-0.5354,-0.5357,-0.5329,-0.5357,-0.5357,-0.5357,-0.5357,-0.5357,0,-0.5614,-0.5599,-0.5588,-0.5567,-0.5557,-0.554,-0.5522,-0.5515,-0.5505,-0.5488,-0.5475,-0.546,-0.5446,-0.5422,-0.5406,-0.5402,-0.5393,-0.5399,-0.5399,-0.5396,-0.5367,-0.5367,-0.5407,-0.5407,-0.5407,-0.5407,-0.5407,-0.5407,-0.5631,-0.5625,-0.5611,-0.5598,-0.5583,-0.5571,-0.5562,-0.555,-0.5535,-0.552,-0.5508,-0.5493,-0.5473,-0.5455,-0.5442,-0.5435,-0.543,-0.5439,-0.543,-0.5403,-0.5398,-0.5393,-0.5394,-0.5438,-0.5439,-0.5459,-0.546,-0.546]},{"header":{"parameterUnit":"m.s-1","parameterCategory":1,"la1":30.2991,"la2":30.254,"lo1":-89.0895,"lo2":-89.0444,"dy":0.0017,"dx":0.0017,"nx":28,"ny":28,"refTime":"2024-02-14T09:00:00:Z","depth":0,"parameterNumber":3,"parameterNumberName":"V-component_of_WINDS"},"data":[0,0,0,0,0,0,0,0,0,0,0,0,0,0,0,0,0,0,0,0,0,0,0,0,0,0,0,0,0,0,0,0,0,0,0,0,0,0,0,0,0,0,0,0,0,0,0,0,0,0,0,0,0,0,0,0,0,0,1.4878,1.4878,0,1.4855,1.4855,1.4855,1.488,1.4881,1.4882,1.4883,1.4855,1.4853,1.4851,0,0,0,0,0,0,0,0,0,0,0,0,0,1.4938,1.4936,1.4878,1.4878,1.4877,1.4855,1.4855,1.4855,1.488,1.4881,1.4882,1.4884,1.4855,1.4853,1.4851,0,0,0,0,0,0,0,0,0,0,0,0,0,1.4913,1.4936,1.4878,1.4887,1.4888,1.4855,1.4855,1.4855,1.488,1.4881,1.4883,1.4884,1.4856,1.4853,1.4851,1.4806,0,0,1.4843,1.4842,0,0,0,0,0,0,0,0,1.4914,1.4911,1.4886,1.4887,1.4887,1.4872,1.4866,1.4838,1.4879,1.4883,1.4883,1.4885,1.4859,1.4856,1.4849,1.4805,1.4803,1.4843,1.4841,1.484,1.484,0,0,0,0,0,0,0,1.4916,1.4912,1.4869,1.4886,1.4887,1.4891,1.4889,1.4861,1.4863,1.4883,1.4884,1.4882,1.4859,1.4851,1.4848,1.4803,1.4843,1.4841,1.4839,1.4838,1.472,1.4718,0,0,0,0,0,0,1.4917,1.4913,1.4869,1.4868,1.4905,1.4889,1.4887,1.4875,1.4863,1.4863,1.488,1.4883,1.4855,1.4851,1.4847,1.4793,1.484,1.4838,1.4837,1.4721,1.4719,1.4718,0,0,0,0,0,0,1.4918,1.4913,1.487,1.4891,1.4886,1.4886,1.4873,1.4874,1.4866,1.4862,1.4862,1.4872,1.4856,1.4851,1.4816,1.4792,1.4837,1.4835,1.4723,1.4721,1.4719,1.4684,0,0,0,0,0,0,1.492,1.4913,1.4898,1.4891,1.4885,1.4841,1.4872,1.4873,1.4862,1.4865,1.4853,1.4853,1.4856,1.482,1.4814,1.4789,1.4833,1.4725,1.4722,1.4719,1.4687,1.4681,1.4675,0,0,0,0,0,1.4922,1.4888,1.4897,1.4891,1.4865,1.484,1.4836,1.4843,1.486,1.4843,1.484,1.4853,1.4796,1.4816,1.4809,1.4784,1.4727,1.4723,1.472,1.469,1.4682,1.4675,0,0,0,0,0,0,1.489,1.4887,1.4897,1.486,1.485,1.4844,1.4823,1.4834,1.4818,1.4821,1.4828,1.4825,1.4788,1.4783,1.4805,1.4739,1.4764,1.4759,1.4744,1.4736,1.473,1.4732,1.4831,0,0,0,0,0,1.4879,1.486,1.4858,1.4825,1.482,1.4822,1.4812,1.4818,1.4807,1.4802,1.4797,1.4785,1.4764,1.475,1.4731,1.4687,1.4684,1.4667,1.4661,1.4656,1.465,1.4625,1.4617,1.4706,1.4706,1.4706,0,0,1.4855,1.4851,1.4839,1.4819,1.4812,1.4791,1.4819,1.4795,1.4779,1.4798,1.4765,1.4761,1.4748,1.4708,1.4691,1.4703,1.4625,1.4651,1.4647,1.4644,1.4621,1.4612,1.4605,1.4703,1.4703,1.4704,0,0,1.4801,1.4797,1.4769,1.4762,1.4752,1.4754,1.4747,1.4739,1.4738,1.4706,1.472,1.4699,1.4664,1.4654,1.4644,1.4586,1.4596,1.4579,1.4547,1.4522,1.4515,1.4509,1.4486,1.4479,1.4575,1.4574,1.4574,0,1.4772,1.4742,1.4752,1.4728,1.4718,1.4737,1.4707,1.4699,1.4683,1.4674,1.4689,1.4645,1.4637,1.4595,1.4581,1.4573,1.4564,1.458,1.4516,1.451,1.4504,1.4482,1.4474,1.4572,1.4573,1.4573,1.4573,0,1.4706,1.4685,1.4663,1.4648,1.4636,1.4609,1.4614,1.46,1.4607,1.4607,1.4573,1.4565,1.4544,1.4534,1.4541,1.4492,1.45,1.4515,1.454,1.4493,1.4473,1.4465,1.4569,1.457,1.4571,1.4571,0,0,1.4629,1.4621,1.4613,1.4606,1.4597,1.458,1.4553,1.4535,1.4522,1.451,1.4486,1.4456,1.447,1.4459,1.4464,1.4443,1.4395,1.446,1.446,1.4447,1.434,1.4327,1.4318,1.4403,1.4402,1.44,1.434,0,1.4573,1.4529,1.4537,1.4493,1.4472,1.4491,1.4467,1.4458,1.4457,1.4438,1.4437,1.4415,1.4436,1.4429,1.4409,1.4405,1.4373,1.441,1.4379,1.4377,1.438,1.4307,1.4294,1.4238,1.4333,1.4331,1.433,0,1.4502,1.4489,1.4443,1.4436,1.4428,1.4407,1.439,1.4373,1.4362,1.4363,1.4351,1.436,1.4331,1.4358,1.4318,1.4342,1.433,1.4327,1.4324,1.432,1.435,1.4299,1.422,1.4211,1.4318,1.4319,1.432,0,1.4448,1.4419,1.4388,1.4382,1.4374,1.4358,1.4354,1.4345,1.4333,1.4318,1.431,1.4291,1.428,1.4265,1.4268,1.4287,1.4226,1.4253,1.4223,1.4223,1.4208,1.4209,1.4124,1.4203,1.4204,1.4204,1.4204,0,1.4383,1.4354,1.4363,1.4344,1.4311,1.4321,1.4288,1.4285,1.4277,1.4256,1.4271,1.425,1.4256,1.4236,1.4238,1.4203,1.4198,1.4196,1.4197,1.4194,1.4194,1.4185,1.4188,1.4201,1.4202,1.4202,1.4203,0,1.4317,1.4323,1.4289,1.4285,1.4283,1.4259,1.4255,1.4235,1.4237,1.4209,1.4204,1.4204,1.418,1.4183,1.4156,1.4157,1.4113,1.412,1.4117,1.4118,1.4088,1.409,1.3992,1.3979,1.4069,1.4068,1.4067,0,1.4275,1.4253,1.4247,1.4235,1.423,1.421,1.4198,1.4207,1.4194,1.418,1.4162,1.414,1.4123,1.4084,1.408,1.4059,1.4064,1.4031,1.4061,1.4058,1.4061,1.4062,1.4059,1.4025,1.4024,1.4023,1.4022,0,1.4198,1.4202,1.4186,1.417,1.4156,1.4144,1.4133,1.4121,1.4129,1.4113,1.409,1.4077,1.405,1.4027,1.4008,1.4001,1.4012,1.4014,1.4005,1.4001,1.4,1.3998,1.4099,1.4015,1.4016,1.4016,1.4017,1.4017,1.4141,1.4122,1.4115,1.4096,1.4089,1.4078,1.406,1.4059,1.4041,1.4021,1.4027,1.4,1.3989,1.3964,1.3956,1.3934,1.3945,1.3934,1.3931,1.3927,1.3923,1.4005,1.3931,1.3931,1.3931,1.3931,1.3931,0,1.4064,1.4061,1.4043,1.4028,1.4013,1.4027,1.4015,1.4001,1.3978,1.3968,1.3951,1.3924,1.3902,1.3898,1.3876,1.3859,1.3864,1.3853,1.3853,1.3851,1.3915,1.3923,1.385,1.385,1.385,1.385,1.385,1.385,1.4022,1.399,1.3993,1.3958,1.3954,1.393,1.3922,1.3911,1.3903,1.3873,1.3855,1.3854,1.3845,1.3823,1.3803,1.3802,1.3793,1.378,1.378,1.3839,1.3847,1.3855,1.3863,1.3778,1.3778,1.3719,1.3718,1.3718]}]]